Location: *
(46.3500°N, 10.9000°E)
Time: 00:12:15
(UTC+00:00)

Vanguard 2 - Pass Details

Date: 24 April 2021
Orbit: 552 x 2938 km, 32.9° (Epoch: 12 May)

Event Time Altitude Azimuth Distance (km) Brightness Sun altitude
Rises 11:15:17 0° 241° (WSW) 6,787 12.6 56.7°
Reaches altitude 10° 11:20:13 10° 236° (SW) 5,724 12.4 56.7°
Maximum altitude 11:35:44 44° 173° (S) 3,109 12.5 56.4°
Drops below altitude 10° 11:46:53 10° 107° (ESE) 4,186 11.4 56.0°
Sets 11:49:53 0° 100° (E) 4,884 11.6 55.9°
